Weather History for PHKO - May, 2014

Change the Weather History Date:

Thursday, May 29, 2014

  Actual Average Record
Temperature  
Mean Temperature 78 °F -  
Max Temperature 84 °F 81 °F 88 °F (1983)
Min Temperature 72 °F 71 °F 69 °F (1998)
Cooling Degree Days 13    
Growing Degree Days 28 (Base 50)    
Moisture  
Dew Point 66 °F    
Average Humidity 65    
Maximum Humidity 84    
Minimum Humidity 54    
Precipitation  
Precipitation 0.00 in - - ()
Sea Level Pressure  
Sea Level Pressure 29.97 in    
Wind  
Wind Speed 7 mph (SE)    
Max Wind Speed 13 mph    
Max Gust Speed 20 mph    
Visibility 10 miles    
Events Rain    
Averages and records for this station are not official NWS values.
T = Trace of Precipitation, MM = Missing Value Source: NWS Daily Summary

Daily Weather History Graph

Daily Weather History Graph

Search for Another Location

Airport or City:

Trip Planner

Search our weather history database for the weather conditions in past years. The results will help you decide how hot, cold, wet, or windy it might be!

Date:

Astronomy

May. 29, 2014 Rise Set
Actual Time 5:44 AM HST 6:58 PM HST
Civil Twilight 5:20 AM HST 7:22 PM HST
Nautical Twilight 4:52 AM HST 7:51 PM HST
Astronomical Twilight 4:22 AM HST 8:20 PM HST
Moon 6:41 AM HST (5/29) 8:04 PM HST (5/29)
Length of Visible Light 14h 01m
Length of Day
13h 13m
New Moon, 1% of the Moon is Illuminated
May 29
New Moon
Jun 5
First Quarter
Jun 12
Full
Jun 19
Last Quarter
Jun 26
New

Hourly Weather History & Observations

Time (HST) Temp. Heat Index Dew Point Humidity Pressure Visibility Wind Dir Wind Speed Gust Speed Precip Events Conditions
12:53 AM 72.0 °F - 66.9 °F 84% 29.98 in 10.0 mi NNE 4.6 mph - N/A   Partly Cloudy
1:53 AM 73.9 °F - 66.0 °F 76% 29.96 in 10.0 mi East 4.6 mph - N/A   Clear
2:53 AM 75.9 °F - 64.9 °F 69% 29.96 in 10.0 mi East 10.4 mph - N/A   Partly Cloudy
3:53 AM 73.9 °F - 66.9 °F 79% 29.95 in 10.0 mi SE 6.9 mph - N/A   Clear
4:53 AM 72.0 °F - 66.0 °F 81% 29.95 in 10.0 mi ESE 3.5 mph - N/A   Clear
5:53 AM 72.0 °F - 64.0 °F 76% 29.96 in 10.0 mi ENE 3.5 mph - N/A   Partly Cloudy
6:53 AM 75.0 °F - 64.9 °F 71% 29.99 in 10.0 mi NE 4.6 mph - N/A   Clear
7:53 AM 80.1 °F 81.2 °F 62.1 °F 54% 29.99 in 10.0 mi West 4.6 mph - N/A   Clear
8:53 AM 81.0 °F 82.2 °F 63.0 °F 54% 30.00 in 10.0 mi South 8.1 mph - N/A   Clear
9:53 AM 82.0 °F 84.9 °F 68.0 °F 62% 30.01 in 10.0 mi South 8.1 mph - N/A   Clear
10:53 AM 82.0 °F 84.9 °F 68.0 °F 62% 30.00 in 10.0 mi SW 9.2 mph - N/A   Clear
11:53 AM 84.0 °F 87.0 °F 68.0 °F 58% 29.99 in 10.0 mi South 12.7 mph - N/A   Clear
12:53 PM 84.0 °F 87.0 °F 68.0 °F 58% 29.98 in 10.0 mi South 10.4 mph 17.3 mph N/A   Partly Cloudy
1:53 PM 84.0 °F 87.0 °F 68.0 °F 58% 29.96 in 10.0 mi South 11.5 mph 19.6 mph N/A   Partly Cloudy
2:53 PM 81.0 °F 83.8 °F 68.0 °F 65% 29.96 in 10.0 mi South 9.2 mph - 0.00 in Rain Light Rain
3:53 PM 82.0 °F 84.5 °F 66.9 °F 60% 29.94 in 10.0 mi SE 12.7 mph - 0.00 in   Overcast
4:53 PM 82.0 °F 83.8 °F 64.9 °F 56% 29.94 in 10.0 mi SE 11.5 mph - N/A   Mostly Cloudy
5:53 PM 80.1 °F 81.5 °F 63.0 °F 56% 29.94 in 10.0 mi SE 8.1 mph - N/A   Overcast
6:53 PM 80.1 °F 82.3 °F 66.9 °F 64% 29.95 in 10.0 mi WSW 5.8 mph - N/A   Mostly Cloudy
7:53 PM 79.0 °F - 66.0 °F 64% 29.97 in 10.0 mi East 4.6 mph - N/A   Overcast
8:53 PM 77.0 °F - 66.0 °F 69% 29.98 in 10.0 mi ESE 9.2 mph - N/A   Clear
9:53 PM 79.0 °F - 63.0 °F 58% 29.99 in 10.0 mi East 11.5 mph 19.6 mph N/A   Partly Cloudy
10:53 PM 77.0 °F - 64.0 °F 64% 29.98 in 10.0 mi Calm Calm - N/A   Clear
11:53 PM 77.0 °F - 63.0 °F 62% 29.98 in 10.0 mi Variable 5.8 mph - N/A   Clear